Terug naar catalogus

SL-19 DEB

ActiefUNKNOWN
NORAD 23479·DEBRIS·🇷🇺 Russia

Gelanceerd Dec 26, 1994 vanaf Baikonur Cosmodrome

Loading…

Volgende Passages (komende 24 uur)

TLE

VersSource: Space-Track

Epoch: Sep 14, 2026, 11:31 UTC

1 23479U 94085C   26257.48047839  .00000168  00000-0  49918-2 0  9994
2 23479  65.0433  77.4276 0090699 323.5864  63.6362 11.45285163323443

Volg SL-19 DEB in realtime met AllMySat

Download on the App Store